Location: Unspecified
(0.0000°N, 0.0000°E)
Time: 00:53:41
(UTC+02:00)

Atlas Centaur 2 - Visible Passes

Search period start: 30 July 2014 00:00
Search period end: 09 August 2014 00:00
Orbit: 460 x 1330 km, 30.4° (Epoch: 29 July)

Date Brightness Start Highest point End Pass type
(mag) Time Alt. Az. Time Alt. Az. Time Alt. Az.
30 Jul 2.0 06:26:36 50° W 06:28:07 72° SSW 06:33:11 10° SE visible
30 Jul 5.4 21:07:05 10° NW 21:09:42 12° NNW 21:12:27 10° N visible
31 Jul 2.3 06:27:21 51° SW 06:27:36 51° SW 06:32:40 10° SE visible
01 Aug 2.9 06:27:55 35° SSW 06:27:55 35° SSW 06:32:01 10° SSE visible
02 Aug 3.5 06:28:17 24° S 06:28:17 24° S 06:31:12 10° SSE visible
03 Aug 4.0 06:28:28 16° S 06:28:28 16° S 06:30:14 10° SSE visible
04 Aug 4.4 06:28:30 11° S 06:28:30 11° S 06:29:01 10° S visible
07 Aug 5.2 22:59:21 10° N 23:00:18 11° N 23:00:18 11° N visible
08 Aug 5.0 22:57:34 10° N 22:59:24 13° N 22:59:24 13° N visible
